STARLINK-31746 (59613 NORAD) Tracking and Keplerian Element Data

This shows tracking and keplerian element data for the satellite.

Feedback or suggestion? Click here.




ElementValue
Catalog59613
NameSTARLINK-31746
Epoch Orbit751
Epoch Day160.18483307
Epoch Year2024
RAAN87.1128
Inclination42.9998
Eccentricity0.0001609
Argument of Perigee272.6309
Mean Anonmoly87.4363
Mean Motion15.40715123
Decay Rate7.842E-05
L11 59613U 24080N 24160.18483307 .00007842 00000+0 19470-3 0 9999
L22 59613 42.9998 87.1128 0001609 272.6309 87.4363 15.40715123 7512



Live tracking and technical data element details for STARLINK-31746 (NORAD 59613). STARLINK-31746 can be tracked NOW for your location showing map with azimuth and elevation plus other details from your city location.







IsCatalogInMostPopularTable: catalog: 59613, numindb: 11
Update: records affected: 1



GetName: 59613 STARLINK-31746

Hit Count: updated at: Fri, 14 Jun 2024 19:46:24 GMT